GSAT-8

Last updated on Thu Oct 30 2025 00:02:48 GMT+0000 (Coordinated Universal Time)

1 37605U 11022A 25302.48199777 .00000095 00000+0 00000+0 0 9993 2 37605 1.5298 84.6959 0007788 163.8384 18.1594 1.00271128 50906
UTC large
Height (km)
Speed (km/s)
/
Latitude / Longitude
Inclination (degrees)
Orbital Period (minutes)
Azimuth
Elevation
Range (km)
Doppler Factor

Next 0 passes for location: London (51.5072 / 0.1276)

Sorry there are no passes over London.